Weather observations for the past three days for
Kahului, Kahului Airport
Metric (Imperial)
Date Time (hst) Wind (kph) Vis. (km) Weather Sky Cond. Temperature (ºC) Relative Humidity Wind Chill (°C) Heat Index (°C) Pressure Precipitation (cm)
Air Dwpt 6 hour altimeter (cm) sea level (mb) 1 hr 3 hr 6 hr
Max. Min.
21 07:54 NE 30 G 56 16.09 A Few Clouds FEW045 27.2 17.8 27.2 22.2 57% 28 76.33 1018.1
21 06:54 NE 31 G 48 16.09 Fair CLR 24.4 18.3 69% 25 76.33 1018.1
21 05:54 NE 24 G 41 16.09 Fair CLR 23.3 17.8 71% 76.28 1017.5
21 04:54 NE 24 16.09 Fair CLR 22.8 18.9 79% 76.25 1017.1
21 03:54 NE 31 G 46 16.09 Partly Cloudy SCT040 22.8 20 84% 76.28 1017.3
21 02:54 NE 22 16.09 Fair CLR 23.3 17.2 69% 76.25 1017.2
21 01:54 NE 20 16.09 A Few Clouds FEW045 23.3 17.8 23.9 23.3 71% 76.3 1017.7
21 00:54 NE 22 16.09 Fair CLR 23.3 18.3 74% 76.33 1018.0
20 23:54 NE 26 G 44 16.09 Fair CLR 23.9 18.9 74% 25 76.35 1018.5
20 22:54 NE 22 16.09 A Few Clouds FEW023 23.9 19.4 76% 24 76.38 1018.9
20 21:54 NE 24 G 41 16.09 Fair CLR 23.9 19.4 76% 24 76.38 1018.8
20 20:54 NE 20 G 31 16.09 A Few Clouds FEW026 FEW047 23.9 20 79% 24 76.35 1018.3
20 19:54 NE 28 G 41 16.09 Fair CLR 23.9 20 30.6 23.9 79% 24 76.3 1017.7
20 18:54 NE 28 G 48 16.09 A Few Clouds FEW035 24.4 19.4 74% 25 76.23 1016.9
20 17:54 NE 39 G 57 16.09 A Few Clouds and Breezy FEW035 25 20 74% 26 76.17 1016.0
20 16:54 NE 39 G 65 16.09 A Few Clouds and Breezy FEW040 27.2 20.6 67% 29 76.12 1015.4
20 15:54 NE 37 G 61 16.09 A Few Clouds and Breezy FEW030 27.2 20.6 67% 29 76.17 1015.9
20 14:54 NE 46 G 63 16.09 A Few Clouds and Windy FEW020 FEW060 28.9 19.4 57% 30 76.17 1016.0
20 13:54 NE 46 G 69 16.09 A Few Clouds and Windy FEW030 FEW070 30.6 18.9 30.6 25 50% 32 76.17 1015.9
20 12:54 NE 44 G 69 16.09 A Few Clouds and Windy FEW030 FEW065 30.6 18.9 50% 32 76.23 1016.6
20 11:54 NE 41 G 61 16.09 A Few Clouds and Breezy FEW030 FEW065 29.4 18.9 53% 31 76.25 1017.2
20 10:54 NE 41 G 61 16.09 A Few Clouds and Breezy FEW045 28.9 17.8 51% 30 76.3 1017.7
20 09:54 NE 41 G 57 16.09 A Few Clouds and Breezy FEW040 FEW055 28.3 18.3 55% 29 76.33 1018.0
20 08:54 NE 35 G 48 16.09 A Few Clouds and Breezy FEW040 27.8 18.3 56% 29 76.35 1018.4
20 07:54 NE 28 G 50 16.09 A Few Clouds FEW040 25 19.4 25 22.2 71% 26 76.38 1018.6
20 06:54 NE 24 G 43 16.09 A Few Clouds FEW025 24.4 19.4 74% 25 76.35 1018.3
20 05:54 NE 24 G 44 16.09 A Few Clouds FEW025 22.8 18.9 79% 76.3 1017.7
20 04:54 NE 22 G 39 16.09 A Few Clouds FEW060 22.2 18.9 82% 76.28 1017.3
20 03:54 NE 20 G 35 16.09 A Few Clouds FEW015 22.2 19.4 84% 76.28 1017.3
20 02:54 NE 28 G 44 11.27 Light Rain SCT015 BKN065 22.2 19.4 84% 76.28 1017.2
20 01:54 NE 26 16.09 A Few Clouds FEW065 22.8 18.3 23.9 22.2 76% 76.3 1017.7
20 00:54 NE 28 G 48 16.09 Partly Cloudy FEW040 FEW049 SCT060 22.2 19.4 84% 76.35 1018.3
19 23:54 NE 37 G 48 9.66 Light Rain and Breezy SCT046 SCT065 23.3 20 82% 76.4 1019.0
19 22:54 NE 26 G 48 12.87 Light Rain SCT026 22.8 20 84% 76.4 1019.2
19 21:54 NE 24 G 41 16.09 Partly Cloudy FEW030 SCT050 22.8 18.9 79% 76.38 1018.8
19 20:54 NE 30 G 41 16.09 Partly Cloudy FEW030 SCT050 23.9 19.4 76% 24 76.35 1018.4
19 19:54 NE 33 G 50 16.09 Partly Cloudy and Breezy FEW030 SCT060 23.9 18.9 30.6 23.9 74% 25 76.3 1017.7
19 18:54 NE 33 G 52 16.09 Partly Cloudy and Breezy FEW030 SCT060 24.4 18.9 72% 25 76.25 1017.2
19 17:54 NE 39 G 59 16.09 Partly Cloudy and Breezy FEW040 SCT060 25.6 18.9 67% 27 76.2 1016.2
19 16:54 NE 46 G 74 16.09 Fair and Windy CLR 27.2 19.4 62% 29 76.15 1015.6
19 15:54 NE 44 G 69 16.09 A Few Clouds and Windy FEW040 27.8 18.9 58% 29 76.12 1015.4
19 14:54 NE 48 G 69 16.09 A Few Clouds and Windy FEW040 29.4 19.4 55% 31 76.15 1015.7
19 13:54 NE 41 G 67 16.09 A Few Clouds and Breezy FEW040 30 17.8 31.1 26.1 48% 31 76.17 1016.2
19 12:54 NE 43 G 59 16.09 A Few Clouds and Windy FEW045 30.6 17.8 46% 31 76.23 1016.8
19 11:54 NE 41 G 65 16.09 A Few Clouds and Breezy FEW030 29.4 17.8 50% 30 76.28 1017.5
19 10:54 NE 46 G 59 16.09 A Few Clouds and Windy FEW025 28.3 20.6 63% 30 76.35 1018.3
19 09:54 NE 37 G 54 16.09 A Few Clouds and Breezy FEW035 FEW060 27.8 20 63% 29 76.38 1018.6
19 08:54 NE 37 G 54 16.09 A Few Clouds and Breezy FEW030 FEW055 27.2 18.3 58% 28 76.38 1018.6
19 07:54 NE 31 G 44 16.09 A Few Clouds FEW050 26.1 18.3 26.1 22.8 62% 27 76.38 1018.7
19 06:54 NE 19 G 35 16.09 Partly Cloudy SCT046 25 17.8 64% 26 76.35 1018.4
19 05:54 NE 33 G 50 16.09 A Few Clouds and Breezy FEW045 23.3 17.2 69% 76.3 1017.6
19 04:54 NE 30 G 48 16.09 Fair CLR 23.3 18.3 74% 76.28 1017.3
19 03:54 NE 22 16.09 Mostly Cloudy BKN048 23.3 16.1 64% 76.28 1017.3
19 02:54 NE 20 G 37 16.09 A Few Clouds FEW044 23.3 18.3 74% 76.28 1017.4
19 01:54 N 24 16.09 Mostly Cloudy FEW024 BKN042 BKN048 23.3 18.9 24.4 22.2 76% 76.33 1018.0
19 00:54 NE 20 G 39 16.09 Mostly Cloudy BKN043 BKN050 22.8 18.9 79% 76.38 1018.6
18 23:54 NE 19 G 39 12.87 Light Rain FEW026 OVC044 23.3 20.6 85% 76.4 1018.9
18 22:54 NE 26 G 48 16.09 Light Rain FEW025 SCT050 23.3 20 82% 76.43 1019.4
18 21:54 NE 24 16.09 Partly Cloudy FEW025 SCT050 24.4 20 77% 25 76.4 1019.1
18 20:54 NE 24 G 48 14.48 Partly Cloudy FEW025 SCT050 23.9 19.4 76% 24 76.4 1018.9
18 19:54 NE 37 16.09 Partly Cloudy and Breezy FEW025 SCT050 23.9 19.4 29.4 23.9 76% 24 76.33 1018.2
18 18:54 NE 31 G 54 16.09 Partly Cloudy FEW025 SCT050 24.4 18.9 72% 25 76.3 1017.7
18 17:54 NE 35 G 57 16.09 Partly Cloudy and Breezy FEW025 SCT050 26.1 19.4 67% 27 76.23 1016.8
18 16:54 E 41 G 67 16.09 Partly Cloudy and Breezy SCT050 27.2 18.3 58% 28 76.2 1016.3
18 15:54 NE 39 G 72 16.09 Partly Cloudy and Breezy FEW030 SCT040 27.2 19.4 62% 29 76.17 1016.2
18 14:54 E 37 G 67 16.09 Partly Cloudy and Breezy FEW030 SCT040 28.9 19.4 57% 30 76.23 1016.7
18 13:54 NE 39 G 69 16.09 Partly Cloudy and Breezy FEW025 SCT055 28.3 19.4 30 24.4 59% 30 76.28 1017.2
18 12:54 E 39 G 59 16.09 Partly Cloudy and Breezy FEW025 SCT060 29.4 18.9 53% 31 76.33 1017.9
18 11:54 NE 31 G 57 16.09 Partly Cloudy FEW040 SCT055 28.3 18.9 57% 30 76.38 1018.6
18 10:54 NE 28 G 54 16.09 Partly Cloudy FEW020 SCT055 26.7 19.4 64% 28 76.4 1018.9
18 09:54 NE 33 G 50 16.09 Partly Cloudy and Breezy FEW020 SCT060 27.2 19.4 62% 29 76.4 1019.2
18 08:54 NE 33 G 43 16.09 Partly Cloudy and Breezy FEW015 SCT060 27.2 19.4 62% 29 76.43 1019.3
Date Time (hst) Wind (kph) Vis. (km) Weather Sky Cond. Air Dwpt Max. Min. Relative Humidity Wind Chill (°C) Heat Index (°C) altimeter (cm) sea level (mb) 1 hr 3 hr 6 hr
6 hour
Temperature (ºC) Pressure Precipitation (cm)